Ardabil, Iran

10:08 PM IRST on October 23, 2019 (GMT +0330)
Ardabil

Weather History for OITL - August, 2019

Change the Weather History Date:

Friday, August 23, 2019

  Actual Average (WUND) Record (WUND)
Temperature  
Mean Temperature 65 °F -  
Max Temperature 84 °F - - (-1)
Min Temperature 46 °F - - (-1)
Growing Degree Days 15 (Base 50)    
Moisture  
Dew Point 47 °F    
Average Humidity 45    
Maximum Humidity 71    
Minimum Humidity 28    
Precipitation  
Precipitation 0.00 in - - ()
Sea Level Pressure  
Sea Level Pressure 30.04 in    
Wind  
Wind Speed 13 mph ()    
Max Wind Speed 33 mph    
Max Gust Speed -    
Averages and records for this station are not official NWS values.
T = Trace of Precipitation, MM = Missing Value Source: Averaged Metar Reports

Daily Weather History Graph

Daily Weather History Graph

Search for Another Location

Airport or City:

Astronomy

Aug. 23, 2019 Rise Set
Actual Time 6:37 AM IRDT 8:00 PM IRDT
Civil Twilight 6:09 AM IRDT 8:27 PM IRDT
Nautical Twilight 5:36 AM IRDT 9:00 PM IRDT
Astronomical Twilight 5:01 AM IRDT 9:35 PM IRDT
Moon 12:18 AM IRDT (8/24) 1:44 PM IRDT
Length of Visible Light 14h 17m
Length of Day
13h 22m
Waning Gibbous, 53% of the Moon is Illuminated
Aug 23
Waning Gibbous
Aug 23
Last Quarter
Aug 30
New
Sep 6
First Quarter
Sep 14
Full

Hourly Weather History & Observations

Time (IRDT) Temp. Windchill Dew Point Humidity Pressure Visibility Wind Dir Wind Speed Gust Speed Precip Events Conditions
12:21 AM 60.8 °F - 48.2 °F 63% 30.04 in - SSE 4.6 mph - N/A   Clear
1:21 AM 51.8 °F - 42.8 °F 71% 30.04 in - SW 9.2 mph - N/A   Clear
2:21 AM 51.8 °F - 42.8 °F 71% 30.04 in - SW 4.6 mph - N/A   Clear
3:22 AM 50.0 °F - 41.0 °F 71% 30.06 in - South 6.9 mph - N/A   Clear
4:24 AM 48.2 °F - 39.2 °F 71% 30.06 in - East 6.9 mph - N/A   Clear
5:24 AM 48.2 °F - 39.2 °F 71% 30.06 in - ESE 4.6 mph - N/A   Clear
6:25 AM 46.4 °F 44.3 °F 37.4 °F 71% 30.06 in - ESE 4.6 mph - N/A   Clear
7:21 AM 50.0 °F - 37.4 °F 62% 30.06 in - SE 4.6 mph - N/A   Clear
7:30 AM 50.0 °F - 37.4 °F 62% 30.06 in - SE 4.6 mph - N/A   Clear
8:22 AM 57.2 °F - 39.2 °F 51% 30.06 in - SW 6.9 mph - N/A   Clear
8:30 AM 57.2 °F - 39.2 °F 51% 30.06 in - SW 6.9 mph - N/A   Clear
9:21 AM 68.0 °F - 44.6 °F 43% 30.06 in - SE 4.6 mph - N/A   Clear
10:00 AM 73.4 °F - 46.4 °F 38% 30.06 in - ENE 4.6 mph - N/A   Clear
10:21 AM 77.0 °F - 46.4 °F 34% 30.06 in - East 9.2 mph - N/A   Clear
10:30 AM 77.0 °F - 46.4 °F 34% 30.06 in - East 9.2 mph - N/A   Clear
11:00 AM 80.6 °F - 44.6 °F 28% 30.06 in - East 16.1 mph - N/A   Clear
11:21 AM 80.6 °F - 44.6 °F 28% 30.06 in - East 21.9 mph - N/A   Clear
11:30 AM 80.6 °F - 44.6 °F 28% 30.06 in - East 21.9 mph - N/A   Clear
12:21 PM 82.4 °F - 46.4 °F 28% 30.04 in - East 26.5 mph - N/A   Clear
12:30 PM 82.4 °F - 46.4 °F 28% 30.04 in - East 26.5 mph - N/A   Clear
1:00 PM 84.2 °F - 50.0 °F 30% 30.04 in - ENE 26.5 mph - N/A   Clear
1:21 PM 84.2 °F - 50.0 °F 30% 30.04 in - ENE 31.1 mph - N/A   Clear
1:30 PM 84.2 °F - 50.0 °F 30% 30.04 in - ENE 31.1 mph - N/A   Clear
2:21 PM 82.4 °F - 53.6 °F 37% 30.04 in - ENE 33.4 mph - N/A   Clear
2:30 PM 82.4 °F - 53.6 °F 37% 30.04 in - ENE 33.4 mph - N/A   Clear
3:21 PM 82.4 °F - 53.6 °F 37% 30.01 in - ENE 33.4 mph - N/A   Clear
3:30 PM 82.4 °F - 53.6 °F 37% 30.01 in - ENE 33.4 mph - N/A   Clear
4:21 PM 82.4 °F - 53.6 °F 37% 30.01 in - ENE 33.4 mph - N/A   Clear
4:30 PM 82.4 °F - 53.6 °F 37% 30.01 in - ENE 33.4 mph - N/A   Clear
5:00 PM 82.4 °F - 53.6 °F 37% 30.01 in - ENE 33.4 mph - N/A   Clear
5:22 PM 80.6 °F - 53.6 °F 39% 30.01 in - ENE 33.4 mph - N/A   Clear
6:22 PM 78.8 °F - 53.6 °F 42% 29.98 in - ENE 33.4 mph - N/A   Clear
7:20 PM 75.2 °F - 51.8 °F 44% 30.01 in - ENE 26.5 mph - N/A   Clear
7:30 PM 75.2 °F - 51.8 °F 44% 30.01 in - ENE 26.5 mph - N/A   Clear
8:23 PM 71.6 °F - 50.0 °F 46% 30.01 in - ENE 21.9 mph - N/A   Clear
9:20 PM 73.4 °F - 48.2 °F 41% 30.01 in - East 19.6 mph - N/A   Clear
10:20 PM 71.6 °F - 46.4 °F 41% 30.04 in - ENE 18.4 mph - N/A   Clear
11:21 PM 66.2 °F - 42.8 °F 43% 30.04 in - ESE 6.9 mph - N/A   Clear